Temperature
21 21 20 20 19 19 21 22 23 22 21 21 22 21 20 19 20 19 19 19 19 19 19 19 19 19 19 18 18 18 18 18 18 18 18 18 18 18 18 18 18 18 18 18 18 18 18 18 18
21 21 20 20 20 20 21 22 22 22 22 22 21 21 20 19 19 19 19 19 19 19 19 19 19 19 19 18 18 18 18 18 18 18 18 18 18 18 18 18 18 18 18 18 18 18 18 18 18
21 21 21 20 20 20 22 23 22 22 22 22 21 20 20 19 19 19 19 19 19 19 19 19 19 19 19 18 18 18 18 18 18 18 18 18 18 18 18 18 18 18 18 18 18 18 18 18 18
21 21 21 20 22 22 23 23 23 23 22 22 21 20 19 19 19 20 19 19 19 19 19 19 19 19 19 18 18 18 18 18 18 18 18 18 18 18 18 18 18 18 18 18 18 18 18 18 18
22 21 20 21 22 23 23 23 23 23 22 21 21 19 19 19 19 19 19 19 19 19 19 18 18 19 19 18 18 18 18 18 18 18 18 18 18 18 18 18 18 18 18 18 18 18 18 18 18
22 21 21 21 23 23 24 23 23 22 22 21 20 19 19 19 19 19 19 19 19 19 19 18 18 18 18 18 18 18 18 18 18 18 18 18 18 18 18 18 18 18 18 18 18 18 18 18 18
22 20 21 22 23 24 24 24 23 22 22 21 21 19 19 19 19 19 19 19 19 19 18 18 18 18 18 18 18 18 18 18 18 18 18 18 18 18 18 18 18 18 18 18 18 18 18 18 18
23 21 22 22 23 24 24 24 23 23 22 21 21 19 19 19 19 19 19 19 19 19 18 18 18 18 18 18 18 18 18 18 18 18 18 18 18 18 18 18 18 18 18 18 18 18 18 18 18
23 21 22 23 24 24 24 24 23 23 22 21 21 21 20 19 19 19 19 19 19 19 18 18 18 18 18 18 18 18 18 18 18 18 18 18 18 18 18 18 18 18 18 18 18 18 18 18 18
23 21 23 24 24 24 24 24 23 23 22 21 20 20 20 19 19 19 19 19 19 19 19 19 18 18 18 18 18 18 18 18 18 18 18 18 18 18 18 18 18 18 18 18 18 18 18 18 18
23 23 24 25 26 25 24 24 24 22 21 21 21 20 20 19 19 19 19 19 19 19 19 19 19 19 18 18 18 18 18 18 18 18 18 18 18 18 18 18 18 18 18 18 18 18 18 18 18
23 24 25 26 26 26 25 24 23 23 23 24 23 21 20 20 19 19 19 19 19 19 19 19 19 19 19 19 18 18 18 18 18 18 18 18 18 18 18 18 18 18 18 18 18 18 18 18 18
25 25 26 26 26 26 25 24 23 23 24 23 22 21 20 20 20 20 20 20 19 19 19 19 19 19 19 19 19 18 18 18 18 18 18 18 18 18 18 18 18 18 18 18 18 18 18 18 18
26 25 26 26 26 25 24 23 23 23 23 22 21 21 20 20 20 20 20 20 20 19 19 19 19 19 19 19 19 19 18 18 18 18 18 18 18 18 18 18 18 18 18 18 18 18 18 18 18
26 25 25 25 25 25 25 24 23 23 22 22 21 21 20 20 20 20 20 20 20 20 19 19 19 19 19 19 19 18 18 18 18 18 18 18 18 18 18 18 18 18 18 18 18 18 18 18 18
25 24 24 25 25 25 25 24 23 23 22 21 21 20 20 20 20 21 20 20 20 20 20 19 19 19 19 19 19 18 18 18 18 18 18 18 18 18 18 18 18 18 18 18 18 18 18 18 18
24 24 24 25 25 25 24 24 23 22 22 21 21 20 20 20 20 20 20 20 20 20 20 19 19 19 19 19 19 18 18 18 18 18 18 18 18 18 18 18 18 18 18 18 18 18 18 18 18
25 24 25 25 25 25 24 23 22 22 22 21 21 21 20 20 21 21 21 21 20 20 20 20 19 19 19 19 18 18 18 18 18 18 18 18 18 18 18 18 18 18 18 18 18 18 18 18 18
25 25 25 25 25 25 24 23 22 22 21 21 21 21 21 21 21 21 21 21 20 20 20 20 19 19 19 19 19 18 18 18 18 18 18 18 18 18 18 18 18 18 18 18 18 18 18 17 18
25 25 25 25 25 25 23 23 22 21 21 21 21 21 21 21 21 21 21 21 20 20 20 20 20 19 19 19 19 19 19 18 18 18 18 18 18 18 18 18 18 18 18 18 18 18 18 17 17
25 25 25 25 24 24 24 23 22 22 22 22 21 21 21 21 21 21 21 21 21 20 20 20 20 20 19 19 19 19 18 18 18 18 18 18 18 18 18 18 18 18 18 18 18 18 18 17 17
25 25 26 25 24 22 23 22 22 21 21 21 21 21 21 21 21 21 21 21 21 21 21 20 20 20 20 19 19 19 19 19 19 19 19 18 18 18 18 18 18 18 18 18 18 18 18 17 17
25 25 24 24 23 22 22 22 21 20 20 20 21 21 21 21 22 22 22 22 21 21 21 21 20 20 20 19 19 19 19 19 19 19 18 18 18 18 18 18 18 18 18 18 18 18 18 17 17
25 24 22 20 20 22 22 22 21 20 20 20 21 21 22 22 22 22 22 22 21 21 21 21 21 20 20 20 19 19 19 19 19 19 19 18 18 18 18 18 18 18 18 18 18 18 17 17 17
23 22 21 22 20 21 21 21 21 22 21 21 21 22 22 22 22 22 22 22 22 21 21 21 21 21 20 20 19 19 19 19 19 19 19 18 18 18 18 18 18 18 18 18 18 18 17 17 17
23 22 21 22 21 20 21 21 21 22 22 22 22 22 22 22 22 22 22 22 22 21 21 21 21 21 20 20 20 20 19 19 19 19 19 18 18 18 18 18 18 18 18 18 18 18 17 17 17
23 21 20 19 20 20 20 21 21 22 21 21 21 22 22 22 22 22 22 22 22 22 21 21 21 21 21 20 20 20 19 19 19 19 19 18 19 18 18 18 18 18 18 18 18 17 17 17 17
22 19 18 19 20 21 21 21 21 22 21 20 20 21 21 22 22 22 21 21 22 21 21 21 21 21 21 20 20 20 20 19 19 19 19 19 19 18 18 18 18 18 18 18 17 17 17 17 17
21 20 17 16 18 19 20 21 21 20 20 20 20 21 21 21 21 21 21 21 21 21 21 21 21 21 20 20 20 20 20 19 19 19 19 19 19 19 18 18 18 18 18 18 17 17 17 17 17
22 20 18 20 19 17 18 19 21 20 19 20 20 21 21 21 21 21 21 21 21 21 21 21 21 20 20 20 20 20 20 19 19 19 19 19 19 18 18 18 18 18 18 18 17 17 17 17 17
Wind_Speed
8 7 3 1 3 4 3 3 2 3 4 4 6 7 7 4 2 4 1 4 6 5 6 10 11 13 13 13 14 14 15 15 15 16 16 15 15 15 15 15 15 14 14 14 13 14 14 14 14
7 5 1 1 4 4 3 3 3 3 4 5 6 6 6 5 3 5 3 5 7 6 7 10 12 13 13 13 13 14 14 15 15 15 15 15 14 14 14 14 14 13 13 13 12 12 13 13 13
6 3 1 3 3 2 1 1 4 5 5 3 4 5 4 3 3 3 4 8 8 6 7 10 12 13 13 13 13 13 14 14 14 14 14 13 13 13 13 13 13 12 12 12 11 11 12 12 12
3 1 2 4 3 1 2 3 5 6 4 5 5 6 4 3 2 5 8 9 8 6 7 9 12 12 12 12 12 13 13 13 13 13 12 12 12 12 11 11 11 11 11 11 10 10 10 11 10
1 2 4 4 3 2 1 3 4 4 3 4 5 5 4 4 8 10 10 9 8 6 6 9 11 12 12 12 11 12 12 12 12 12 11 11 11 11 10 10 10 10 10 10 9 9 9 9 9
2 3 4 2 2 2 2 3 4 6 5 4 5 5 3 4 9 9 9 8 6 6 5 8 10 11 11 11 11 11 11 11 11 11 11 10 10 10 9 9 9 9 9 9 9 8 7 7 7
2 3 2 1 0 0 2 3 4 5 5 4 5 5 3 4 7 9 8 7 7 5 5 5 7 9 10 11 10 10 9 9 10 10 10 9 9 8 8 8 8 7 7 7 7 7 6 5 5
3 4 2 1 2 1 3 3 3 5 5 5 4 7 6 6 9 9 8 7 6 5 4 3 4 6 7 8 9 9 8 8 8 9 9 8 8 7 7 7 7 6 6 6 6 6 5 4 4
3 3 1 4 4 3 4 4 2 4 6 4 3 4 7 14 12 10 7 5 4 4 3 3 3 4 5 5 7 7 7 7 7 6 7 6 5 5 4 5 5 5 4 4 4 4 3 3 2
3 2 5 4 4 4 5 5 5 5 5 3 5 8 14 15 13 11 10 8 6 5 3 2 3 3 4 4 4 4 4 4 4 4 4 4 4 4 3 3 3 3 3 2 1 1 1 1 1
4 4 3 2 3 5 5 4 4 8 4 6 10 15 16 15 12 11 10 8 7 5 4 3 3 3 3 2 3 3 3 3 3 3 4 4 3 2 2 2 1 1 1 1 2 2 1 1 0
3 3 3 1 3 4 6 5 4 5 5 8 14 18 17 16 13 12 11 8 6 6 5 4 4 3 3 3 2 2 2 2 2 3 4 4 2 2 1 1 1 1 1 1 1 1 1 1 1
1 2 1 2 4 4 6 4 3 2 5 12 15 16 16 15 12 9 8 7 6 6 5 5 5 4 3 2 2 2 2 3 3 3 4 4 3 2 1 1 0 0 0 0 0 1 1 1 1
1 1 1 2 4 3 6 2 3 3 10 14 15 15 14 13 12 9 8 8 8 7 6 5 5 5 3 3 2 2 3 4 4 4 4 5 4 3 2 1 1 1 1 1 1 0 0 1 0
2 4 5 3 3 2 6 2 2 6 11 13 13 13 12 11 10 10 10 9 9 7 6 6 5 5 4 3 3 3 3 4 3 4 4 5 5 4 3 2 1 2 1 1 1 1 1 1 1
4 5 3 4 1 2 4 3 3 9 12 12 12 11 11 10 10 10 9 8 7 7 6 6 6 5 4 4 3 2 3 3 3 4 4 5 5 5 3 2 1 1 0 0 1 1 1 1 1
5 2 2 4 1 2 3 4 3 8 10 10 10 10 10 9 9 9 9 9 8 8 7 7 5 6 5 4 3 2 3 3 3 3 4 5 5 5 4 2 2 1 1 1 0 1 1 1 1
2 2 3 4 3 2 2 3 3 8 10 10 9 9 10 11 11 9 9 9 8 7 7 7 6 5 5 3 2 1 1 1 2 3 4 5 5 5 5 3 2 2 1 1 1 1 1 1 1
3 3 5 6 3 3 3 3 4 7 7 9 9 9 10 10 8 7 8 8 8 8 8 8 7 6 5 3 2 2 2 1 1 2 4 5 5 5 4 2 2 2 2 2 2 2 2 1 1
2 2 4 4 1 2 1 2 2 6 8 9 11 11 11 8 6 7 8 8 10 10 9 8 8 7 6 5 3 2 2 1 1 1 2 4 5 5 5 4 3 3 2 2 2 2 2 1 1
2 3 4 3 3 4 3 4 2 2 3 4 7 8 8 11 10 10 10 9 9 10 10 9 8 8 7 6 3 2 2 2 1 0 1 2 5 5 5 5 4 4 4 3 3 3 3 2 1
4 5 4 2 2 2 2 2 6 2 3 5 6 8 9 9 9 9 9 9 10 10 9 8 8 8 7 7 6 5 4 3 3 2 2 2 3 4 5 5 5 4 4 3 3 3 3 3 2
5 1 2 2 3 2 3 1 7 2 3 8 8 8 9 10 11 12 12 12 10 10 9 9 8 7 7 7 8 6 5 4 2 2 2 2 1 3 4 5 4 4 4 4 3 3 3 3 3
2 5 6 6 5 1 2 2 6 3 6 6 7 8 9 10 10 11 10 9 8 8 8 8 8 8 8 8 8 8 7 6 4 3 3 2 2 2 3 4 4 4 4 4 4 3 4 3 3
5 6 5 5 5 4 3 2 7 6 6 6 7 8 8 9 9 9 9 9 9 9 9 9 9 9 8 9 9 8 8 7 7 6 5 4 3 3 4 4 3 3 4 4 3 3 3 4 3
3 8 7 4 4 5 3 4 7 5 5 3 3 4 6 8 8 9 9 9 9 9 9 9 10 9 9 9 8 7 7 6 5 6 5 6 5 5 4 4 4 4 4 4 3 3 3 3 4
4 3 6 7 2 1 5 6 7 4 5 3 1 1 4 6 7 7 6 6 7 8 9 10 9 9 8 9 8 8 8 7 7 6 6 5 5 5 5 5 5 5 4 4 4 3 4 3 4
4 8 6 5 4 3 5 4 5 7 7 5 3 2 2 1 3 3 4 5 7 7 7 7 8 9 8 8 8 8 8 9 8 7 7 7 6 5 5 5 5 5 5 5 5 4 4 4 4
3 4 5 5 5 5 4 6 5 6 5 4 4 2 1 2 3 3 4 5 5 5 6 6 7 7 7 7 7 8 8 8 7 7 8 7 6 6 7 7 6 6 6 6 5 5 5 5 5
4 5 6 4 3 4 4 7 4 3 4 3 3 2 1 1 2 3 4 4 4 4 4 5 6 6 7 7 7 8 7 7 8 8 8 7 7 7 7 7 7 7 6 6 6 6 6 6 6
Wind_Direction
155 148 145 144 51 47 22 360 63 72 54 46 69 77 87 72 87 127 132 128 122 118 122 122 119 119 121 121 120 119 119 120 121 121 121 120 120 119 118 117 118 118 117 114 112 112 113 113 113
150 158 179 56 69 56 356 359 58 79 126 119 76 70 71 64 68 103 117 125 119 117 117 124 123 121 121 120 120 119 119 120 121 121 121 122 122 123 121 120 120 119 117 115 112 114 117 117 116
164 193 85 57 69 130 172 63 106 103 111 88 75 61 72 80 99 119 136 126 114 111 117 126 125 124 123 121 121 122 121 121 121 121 121 123 123 122 123 123 123 122 122 121 119 118 121 121 121
164 103 51 59 43 282 175 143 129 123 77 57 89 72 63 52 112 126 126 122 116 112 118 126 126 126 124 123 122 122 123 123 123 123 124 124 123 122 122 123 124 124 125 125 123 122 123 123 124
89 80 53 37 356 346 89 120 131 104 80 69 83 82 51 28 99 115 121 122 122 116 119 125 125 126 125 126 125 125 125 125 125 126 126 125 125 124 122 126 127 128 129 129 126 126 126 125 126
50 59 65 27 344 9 89 120 111 94 93 93 91 92 59 89 109 120 120 119 117 115 115 124 128 127 126 125 127 126 125 126 127 127 127 127 128 129 128 131 132 132 132 132 132 132 129 128 128
89 72 88 176 313 42 149 127 120 117 114 123 119 101 105 126 122 121 114 110 106 103 103 113 125 128 129 130 129 131 131 130 131 133 134 134 133 132 133 135 135 134 134 136 137 138 140 137 133
130 95 70 217 184 206 153 121 115 119 112 118 116 133 160 160 129 115 107 103 105 101 97 99 108 118 126 134 137 138 139 138 139 140 141 142 140 137 136 140 139 136 135 141 149 152 154 152 149
109 73 216 210 189 191 151 128 113 92 110 110 107 136 146 137 130 122 117 109 119 127 108 107 104 115 125 137 145 147 149 147 144 143 144 139 128 130 133 144 148 148 150 150 159 166 173 167 164
108 140 233 220 189 167 149 140 143 117 110 100 94 107 128 138 144 147 150 153 159 162 156 136 134 135 139 148 139 138 140 137 131 127 122 127 128 132 137 141 153 163 165 154 136 154 163 118 65
158 199 241 259 176 145 137 132 133 133 167 181 159 148 147 151 157 161 164 167 173 171 173 164 157 151 145 132 136 131 131 136 140 140 140 139 132 118 107 89 65 65 90 59 25 29 20 23 339
182 248 215 203 146 141 146 139 136 173 202 167 156 153 156 162 168 173 174 175 169 169 183 170 160 156 161 147 142 140 139 146 152 158 159 151 140 126 118 95 67 47 72 66 358 354 340 319 280
200 293 257 145 139 141 124 130 140 173 129 132 142 152 163 170 175 178 176 174 171 180 186 177 167 168 165 148 164 150 157 173 180 176 174 170 162 155 144 129 125 251 230 189 325 346 337 322 313
248 0 4 82 107 124 124 121 111 161 138 140 152 164 171 176 177 175 177 180 185 191 190 181 178 178 169 162 165 161 168 172 171 181 184 180 179 176 168 158 182 243 253 251 267 309 338 334 319
38 38 22 36 73 122 115 78 190 158 144 153 165 170 174 179 179 185 187 187 188 190 187 184 185 179 176 179 184 175 174 168 172 191 195 188 186 184 176 162 192 245 248 263 347 25 51 30 32
42 51 11 306 60 127 123 241 203 154 154 167 174 176 180 185 188 189 186 185 184 184 183 189 193 183 186 188 186 173 172 172 186 201 201 196 194 187 170 164 205 236 196 106 86 59 74 56 37
32 32 292 295 217 131 144 236 195 158 165 178 181 182 186 192 197 194 189 186 183 187 186 185 192 182 185 185 178 170 166 176 194 199 201 202 197 188 178 179 202 193 119 109 141 88 111 99 37
266 269 272 262 247 140 184 241 192 172 178 188 188 188 192 200 206 196 189 185 181 186 186 187 192 184 171 161 142 124 128 166 188 198 206 200 200 194 185 185 187 156 119 102 97 87 82 91 74
209 223 261 260 236 162 211 242 213 179 187 196 198 198 202 206 199 187 187 181 178 184 184 187 189 185 165 153 160 163 184 190 187 203 207 201 203 197 187 180 160 149 153 163 143 114 92 67 76
216 269 282 298 334 137 131 297 216 189 199 200 199 202 204 200 188 190 189 187 186 188 188 189 191 186 180 179 169 165 156 171 186 196 195 200 199 198 193 174 169 163 160 157 153 140 132 119 95
273 215 244 269 7 37 62 343 318 251 208 208 212 210 203 200 196 194 191 194 194 192 190 194 193 189 185 173 146 121 94 80 111 183 211 202 197 200 195 184 174 172 175 185 185 168 164 167 151
278 252 221 194 90 317 64 293 298 267 239 226 225 214 205 204 199 196 191 193 199 200 190 187 190 189 183 170 169 168 176 187 199 195 200 196 194 200 201 193 185 182 181 187 197 180 172 162 183
235 341 79 101 129 41 18 130 295 337 267 249 236 220 208 202 197 198 199 199 197 196 191 187 183 188 184 180 182 183 191 195 183 171 188 213 220 216 211 202 194 189 190 197 198 177 179 183 189
152 60 50 51 70 31 282 163 286 259 241 258 236 225 210 205 201 201 200 193 192 192 188 185 185 195 190 187 188 190 192 188 182 188 202 221 227 229 218 205 198 196 194 198 199 192 192 200 199
73 78 26 2 12 262 287 183 254 263 250 237 232 222 208 201 196 196 197 194 194 193 191 188 189 199 196 192 194 196 197 192 196 201 204 210 221 227 224 215 203 203 203 200 196 193 204 203 198
147 133 154 199 224 277 332 239 257 278 296 269 228 208 192 197 196 199 199 198 196 194 190 189 193 199 196 195 198 196 194 197 206 207 207 210 216 221 215 206 208 209 204 200 191 201 211 202 209
129 149 161 138 155 291 289 291 304 313 337 348 8 158 200 199 196 199 197 193 191 192 194 193 192 197 199 199 196 197 197 201 208 206 205 213 215 218 208 207 209 212 206 197 189 208 219 211 220
121 141 98 117 146 250 292 283 267 298 307 317 323 284 249 194 176 180 184 189 191 191 190 188 190 197 201 200 204 209 207 207 208 205 207 210 214 214 205 209 211 214 213 206 200 209 217 216 228
75 88 100 113 145 162 243 269 233 243 266 273 275 274 228 168 170 173 176 179 173 176 182 190 193 195 197 200 204 209 208 207 205 208 214 214 213 209 213 214 211 213 215 212 205 215 214 218 227
155 159 142 147 210 173 186 262 282 255 264 258 287 323 36 154 171 163 161 158 161 167 182 200 201 204 206 201 202 209 208 205 209 215 217 211 214 215 214 213 213 216 216 210 209 219 219 217 222
Height
1490 1490 1491 1493 1495 1503 1506 1499 1493 1494 1495 1495 1496 1496 1499 1502 1506 1512 1508 1508 1509 1510 1511 1512 1512 1513 1514 1515 1516 1517 1518 1520 1521 1522 1524 1526 1528 1529 1531 1532 1534 1536 1538 1539 1541 1542 1544 1545 1546
1491 1491 1493 1494 1502 1514 1509 1498 1496 1495 1496 1496 1497 1499 1500 1503 1504 1506 1507 1509 1511 1512 1513 1514 1515 1516 1516 1517 1519 1520 1521 1522 1524 1525 1526 1528 1530 1531 1533 1535 1536 1538 1540 1541 1543 1544 1546 1547 1549
1492 1492 1495 1496 1505 1512 1507 1497 1496 1496 1497 1497 1499 1501 1503 1505 1506 1508 1509 1511 1512 1514 1515 1516 1517 1518 1519 1520 1521 1522 1524 1525 1526 1527 1529 1530 1532 1534 1535 1537 1538 1540 1542 1543 1545 1546 1548 1550 1551
1493 1495 1496 1501 1506 1502 1498 1496 1496 1497 1498 1499 1500 1504 1506 1508 1508 1510 1511 1513 1514 1516 1517 1518 1520 1521 1522 1523 1524 1525 1526 1527 1529 1530 1531 1532 1534 1535 1537 1539 1540 1542 1544 1545 1547 1548 1550 1552 1553
1494 1495 1501 1508 1505 1499 1496 1496 1497 1498 1499 1501 1502 1506 1508 1510 1510 1512 1513 1515 1516 1518 1519 1520 1522 1523 1524 1525 1526 1528 1529 1530 1531 1532 1533 1535 1536 1537 1539 1540 1542 1544 1545 1547 1548 1550 1552 1553 1555
1495 1496 1509 1514 1506 1499 1497 1497 1498 1499 1502 1503 1504 1507 1510 1512 1513 1514 1516 1517 1519 1520 1521 1523 1524 1525 1527 1528 1529 1530 1531 1532 1533 1534 1535 1537 1538 1539 1541 1542 1544 1545 1547 1548 1550 1552 1553 1555 1556
1498 1501 1509 1508 1506 1501 1499 1498 1500 1501 1503 1505 1505 1508 1511 1513 1515 1516 1518 1520 1521 1522 1524 1525 1526 1528 1529 1530 1531 1532 1533 1534 1535 1536 1537 1539 1540 1541 1542 1544 1545 1547 1548 1550 1551 1553 1554 1556 1557
1497 1502 1507 1507 1505 1502 1498 1499 1501 1502 1504 1506 1507 1508 1511 1513 1516 1518 1520 1521 1523 1524 1525 1527 1528 1530 1531 1532 1533 1534 1535 1536 1537 1538 1539 1540 1541 1542 1544 1545 1547 1548 1550 1551 1553 1554 1556 1557 1558
1498 1506 1510 1504 1502 1499 1497 1499 1502 1503 1504 1506 1507 1508 1510 1513 1516 1519 1521 1523 1524 1526 1527 1528 1530 1531 1532 1533 1534 1535 1536 1537 1538 1539 1540 1542 1543 1544 1545 1547 1548 1549 1551 1552 1554 1555 1557 1558 1559
1499 1508 1503 1496 1494 1495 1497 1499 1501 1503 1505 1507 1508 1509 1512 1514 1517 1519 1520 1522 1524 1526 1528 1530 1531 1532 1533 1534 1535 1536 1537 1538 1539 1540 1541 1543 1544 1546 1547 1548 1550 1551 1552 1554 1555 1556 1557 1558 1559
1497 1501 1496 1493 1492 1494 1496 1499 1501 1503 1506 1505 1506 1508 1511 1514 1517 1519 1521 1523 1525 1527 1529 1531 1532 1534 1535 1535 1536 1537 1538 1538 1540 1541 1543 1544 1545 1547 1548 1550 1551 1552 1553 1555 1556 1557 1558 1559 1560
1497 1495 1493 1492 1492 1494 1496 1499 1501 1502 1502 1503 1505 1507 1511 1514 1517 1519 1522 1524 1526 1528 1530 1532 1533 1534 1536 1536 1537 1537 1538 1538 1540 1542 1543 1545 1546 1548 1549 1551 1552 1553 1554 1555 1556 1558 1558 1559 1560
1495 1494 1492 1492 1492 1494 1496 1499 1501 1502 1502 1504 1507 1509 1511 1514 1517 1520 1523 1525 1527 1529 1531 1532 1534 1535 1536 1537 1537 1538 1538 1538 1540 1542 1544 1546 1547 1549 1550 1552 1553 1554 1555 1556 1557 1558 1559 1559 1560
1494 1493 1493 1492 1493 1495 1497 1500 1502 1502 1503 1505 1507 1510 1513 1515 1518 1521 1523 1525 1527 1529 1531 1533 1534 1536 1537 1538 1538 1539 1539 1539 1541 1542 1544 1546 1548 1549 1551 1552 1553 1554 1556 1557 1557 1558 1559 1559 1560
1494 1495 1495 1494 1495 1496 1498 1503 1502 1502 1504 1506 1508 1511 1514 1516 1518 1520 1523 1525 1527 1529 1532 1533 1535 1536 1537 1538 1539 1540 1540 1541 1542 1543 1545 1547 1548 1550 1551 1553 1554 1555 1556 1557 1557 1558 1558 1559 1559
1497 1503 1508 1498 1496 1497 1502 1509 1501 1502 1504 1506 1509 1512 1514 1516 1518 1520 1523 1525 1528 1530 1531 1533 1535 1536 1537 1539 1540 1540 1541 1542 1543 1545 1546 1548 1549 1550 1552 1553 1554 1555 1556 1557 1557 1558 1558 1558 1559
1508 1514 1512 1503 1497 1497 1502 1506 1501 1502 1505 1507 1509 1512 1513 1515 1517 1519 1522 1524 1527 1530 1532 1533 1535 1536 1538 1539 1540 1541 1542 1543 1544 1546 1547 1548 1550 1551 1552 1553 1554 1555 1556 1557 1557 1557 1558 1558 1558
1515 1514 1511 1508 1499 1499 1503 1504 1501 1502 1504 1506 1509 1511 1513 1514 1516 1519 1521 1524 1526 1529 1531 1533 1534 1536 1537 1539 1540 1541 1542 1544 1545 1546 1547 1549 1550 1551 1552 1553 1554 1555 1556 1556 1557 1557 1557 1558 1557
1504 1509 1511 1504 1496 1500 1503 1504 1502 1502 1504 1505 1507 1509 1511 1512 1515 1518 1521 1523 1525 1527 1529 1531 1533 1535 1537 1538 1539 1540 1542 1543 1545 1546 1547 1549 1550 1551 1552 1553 1554 1555 1556 1556 1556 1557 1557 1557 1557
1504 1508 1509 1502 1496 1499 1504 1505 1501 1501 1502 1503 1504 1506 1508 1510 1514 1516 1518 1521 1523 1525 1527 1529 1532 1534 1536 1537 1539 1540 1542 1543 1544 1546 1547 1548 1549 1551 1552 1553 1554 1554 1555 1555 1556 1556 1556 1556 1557
1504 1507 1505 1504 1501 1501 1505 1510 1505 1502 1503 1504 1504 1505 1506 1508 1510 1512 1515 1518 1520 1522 1524 1527 1529 1532 1534 1536 1538 1540 1541 1542 1543 1545 1546 1547 1549 1550 1551 1552 1553 1553 1554 1554 1555 1555 1555 1555 1556
1508 1498 1499 1501 1510 1518 1511 1527 1510 1505 1503 1502 1502 1502 1503 1505 1507 1509 1511 1513 1516 1519 1522 1525 1527 1530 1532 1535 1536 1538 1539 1540 1542 1544 1545 1547 1548 1549 1550 1550 1551 1552 1552 1553 1554 1554 1554 1555 1555
1498 1495 1498 1502 1510 1519 1517 1525 1518 1507 1506 1500 1498 1498 1499 1501 1503 1505 1507 1510 1513 1517 1519 1522 1525 1527 1530 1532 1534 1536 1537 1539 1541 1542 1544 1545 1546 1547 1548 1549 1549 1550 1551 1551 1552 1553 1553 1553 1553
1493 1499 1504 1513 1520 1532 1523 1527 1524 1511 1503 1496 1494 1494 1495 1497 1499 1502 1505 1508 1511 1514 1517 1519 1522 1524 1527 1529 1531 1533 1535 1537 1538 1539 1541 1543 1544 1545 1546 1547 1548 1548 1549 1550 1550 1551 1551 1551 1552
1497 1513 1533 1535 1543 1538 1523 1525 1520 1499 1494 1492 1490 1490 1491 1494 1496 1499 1502 1505 1508 1511 1514 1516 1519 1522 1524 1526 1529 1530 1533 1534 1536 1537 1539 1541 1542 1543 1544 1545 1546 1546 1547 1548 1548 1549 1549 1549 1550
1501 1511 1534 1544 1546 1539 1525 1526 1509 1493 1490 1488 1487 1488 1489 1491 1493 1496 1499 1502 1505 1508 1511 1514 1516 1518 1521 1523 1525 1528 1530 1531 1533 1535 1536 1538 1539 1540 1542 1543 1543 1544 1545 1545 1546 1546 1546 1547 1548
1502 1511 1512 1530 1534 1540 1533 1520 1503 1491 1489 1487 1487 1487 1488 1489 1491 1493 1496 1499 1502 1506 1508 1511 1513 1515 1518 1520 1523 1525 1527 1528 1530 1532 1533 1535 1536 1537 1538 1540 1541 1541 1542 1542 1543 1543 1544 1544 1545
1496 1506 1520 1531 1542 1544 1533 1525 1517 1498 1494 1489 1488 1487 1487 1488 1490 1492 1495 1497 1500 1503 1506 1509 1511 1513 1515 1518 1520 1521 1523 1525 1526 1528 1529 1531 1532 1534 1535 1536 1537 1538 1539 1539 1539 1540 1540 1541 1542
1503 1509 1518 1530 1532 1542 1543 1529 1500 1497 1492 1490 1488 1487 1487 1488 1489 1491 1493 1495 1498 1501 1503 1505 1507 1510 1512 1513 1516 1518 1519 1521 1523 1524 1526 1527 1529 1530 1531 1533 1534 1534 1535 1536 1536 1536 1537 1538 1539
1497 1504 1514 1524 1531 1536 1538 1525 1492 1492 1489 1489 1488 1487 1487 1488 1488 1490 1492 1494 1495 1498 1500 1502 1504 1506 1508 1510 1512 1514 1515 1517 1519 1520 1522 1523 1525 1526 1528 1529 1529 1530 1531 1532 1532 1533 1534 1535 1535